Track GLOBALSTAR M077 now! 10-day predictions GLOBALSTAR M077 is classified as:
1 37191U 10054D 21102.14299155 -.00000114 00000-0 -56232-4 0 9993 2 37191 52.0078 64.3667 0000435 79.1410 297.0890 12.62267300484405